User: anonymous   Login
Location: Mactaquac Provincial Park
(45.9573°N, 66.8897°W)
Time: 04:25:36
(UTC-03:00)
Language:

Cosmos 1867 - Orbit

View from above orbital plane
View from above orbital plane
View from above satellite
View from above satellite

Ground track
Ground track

The orbit data is extracted from the following two-line orbital elements,

1 18187U 87060A   15214.80273790 -.00000055  00000-0  17030-4 0  9991
2 18187 065.0122 344.0908 0017081 282.1090 077.8080 14.31060320466062
Epoch (UTC): 02 August 2015 19:15:56
Eccentricity: 0.0017081
inclination: 65.0122°
perigee height: 776 km
apogee height: 800 km
right ascension of ascending node: 344.0908°
argument of perigee: 282.1090°
revolutions per day: 14.31060320
mean anomaly at epoch: 77.8080°
orbit number at epoch: 46606

The dashed part of the orbit path shows where the satellite is in the earth's shadow,  

DLR